Location: Bowden
(51.9167°N, 114.0333°W)
Time: 09:48:27
(UTC+00:00)

Envisat - Pass Details

Date: 12 December 2021
Orbit: 764 x 766 km, 98.2° (Epoch: 28 January)

Event Time Altitude Azimuth Distance (km) Brightness Sun altitude
Rises 00:10:15 0° 184° (S) 3,221 6.7 -6.6°
Reaches altitude 10° 00:12:40 10° 192° (SSW) 2,300 6.1 -7.0°
Maximum altitude 00:17:28 42° 263° (W) 1,088 4.5 -7.6°
Drops below altitude 10° 00:22:19 10° 334° (NNW) 2,317 5.5 -8.3°
Sets 00:24:45 0° 341° (NNW) 3,248 6.2 -8.6°
